Date String (YYYY-MM-DD hh:mm:ss) UTC,Instrument flags,Ambient pressure (hPa),Sample flow (lpm),Bypass flow (lpm),Sample temperature (°C),Ambient temperature (°C),ASC tube jacket temperature (°C),LED temperature (°C),Box temperature (°C),Sample RH (%),Span deviation,Mass concentration (μg/m³),Mass concentration (μg/m³),Mass concentration (μg/m³)
DateTimeUTC,F1_M11,P_M11,Q1_M11,Q2_M11,T1_M11,T2_M11,T3_M11,T4_M11,T5_M11,U1_M11,ZSPAN_M11,X0_M11,X2_M11,X1_M11
2023-02-16 13:00:00,,0826.5,5.04,0.00,22.2,22.8,00.0,30.8,24.1,06.1,0000.0,0007.18,0003.96,0003.69
2023-02-16 13:01:00,,0826.5,5.03,0.00,22.2,22.0,00.0,30.9,24.0,06.1,0000.0,0007.73,0003.98,0003.73
2023-02-16 13:02:00,,0826.5,5.02,0.00,22.1,21.3,00.0,30.9,23.8,06.2,0000.0,0008.20,0004.01,0003.75
2023-02-16 13:03:00,,0826.5,5.01,0.00,22.1,20.7,00.0,30.9,23.6,06.2,0000.0,0008.39,0004.04,0003.78
2023-02-16 13:04:00,,0826.5,5.00,0.00,22.0,20.2,00.0,30.9,23.4,06.2,0000.0,0008.51,0004.11,0003.81
2023-02-16 13:05:00,,0826.5,5.01,0.00,21.9,19.9,00.0,30.9,23.3,06.3,0000.0,0008.60,0004.16,0003.83
2023-02-16 13:06:00,,0826.5,5.01,0.00,21.9,20.8,00.0,30.8,23.5,06.2,0000.0,0008.66,0004.20,0003.86
2023-02-16 13:07:00,,0826.5,5.00,0.00,22.0,21.9,00.0,30.8,23.8,06.2,0000.0,0008.74,0004.26,0003.89
2023-02-16 13:08:00,,0826.5,5.02,0.00,22.1,22.7,00.0,30.8,24.0,06.2,0000.0,0008.75,0004.30,0003.91
2023-02-16 13:09:00,,0826.5,4.96,0.00,22.2,22.4,00.0,30.9,24.0,06.1,0000.0,0008.88,0004.37,0003.95
2023-02-16 13:10:00,,0826.5,5.01,0.00,22.1,21.6,00.0,30.9,23.8,06.1,0000.0,0008.99,0004.44,0003.99
2023-02-16 13:11:00,,0826.4,5.01,0.00,22.1,20.9,00.0,30.9,23.6,06.1,0000.0,0008.38,0004.50,0004.03
2023-02-16 13:12:00,,0826.5,5.02,0.00,22.0,20.4,00.0,30.9,23.5,06.2,0000.0,0007.94,0004.52,0004.05
2023-02-16 13:13:00,,0826.4,4.98,0.00,21.9,20.1,00.0,30.9,23.4,06.2,0000.0,0007.52,0004.53,0004.06
2023-02-16 13:14:00,,0826.4,5.02,0.00,21.9,20.3,00.0,30.9,23.4,06.3,0000.0,0007.34,0004.53,0004.06
2023-02-16 13:15:00,,0826.5,5.00,0.00,22.0,21.4,00.0,30.8,23.7,06.3,0000.0,0007.27,0004.52,0004.06
2023-02-16 13:16:00,,0826.5,4.98,0.00,22.1,22.4,00.0,30.8,24.0,06.2,0000.0,0007.38,0004.50,0004.04
2023-02-16 13:17:00,,0826.4,4.98,0.00,22.2,22.8,00.0,30.8,24.2,06.2,0000.0,0007.50,0004.48,0004.02
2023-02-16 13:18:00,,0826.4,4.99,0.00,22.2,22.2,00.0,30.9,24.0,06.2,0000.0,0007.51,0004.48,0004.01
2023-02-16 13:19:00,,0826.5,5.00,0.00,22.2,21.5,00.0,30.9,23.9,06.2,0000.0,0007.46,0004.44,0003.99
2023-02-16 13:20:00,,0826.5,5.00,0.00,22.1,21.0,00.0,31.0,23.8,06.2,0000.0,0007.41,0004.41,0003.97
2023-02-16 13:21:00,,0826.5,5.00,0.00,22.1,20.5,00.0,31.0,23.6,06.2,0000.0,0007.22,0004.36,0003.95
2023-02-16 13:22:00,,0826.4,5.00,0.00,22.0,20.2,00.0,30.9,23.5,06.2,0000.0,0007.06,0004.32,0003.93
2023-02-16 13:23:00,,0826.5,5.00,0.00,22.0,20.3,00.0,30.9,23.5,06.2,0000.0,0006.92,0004.28,0003.90
2023-02-16 13:24:00,,0826.5,5.02,0.00,22.0,21.3,00.0,30.9,23.8,06.2,0000.0,0006.88,0004.26,0003.89
2023-02-16 13:25:00,,0826.5,4.94,0.00,22.2,22.2,00.0,30.8,24.0,06.2,0000.0,0007.18,0004.29,0003.90
2023-02-16 13:26:00,,0826.5,5.00,0.00,22.3,22.9,00.0,30.9,24.3,06.1,0000.0,0008.12,0004.28,0003.90
2023-02-16 13:27:00,,0826.5,4.98,0.00,22.4,23.3,00.0,30.9,24.4,06.1,0000.0,0008.17,0004.31,0003.91
2023-02-16 13:28:00,,0826.5,5.01,0.00,22.4,22.7,00.0,31.0,24.3,06.1,0000.0,0008.08,0004.32,0003.92
2023-02-16 13:29:00,,0826.5,4.98,0.00,22.4,21.9,00.0,31.0,24.1,06.1,0000.0,0008.06,0004.32,0003.93
2023-02-16 13:30:00,,0826.5,4.99,0.00,22.3,21.2,00.0,31.1,23.9,06.1,0000.0,0008.04,0004.33,0003.94
2023-02-16 13:31:00,,0826.5,5.01,0.00,22.2,20.7,00.0,31.1,23.7,06.2,0000.0,0008.02,0004.33,0003.94
2023-02-16 13:32:00,,0826.6,5.01,0.00,22.1,20.3,00.0,31.0,23.6,06.2,0000.0,0008.01,0004.30,0003.93
2023-02-16 13:33:00,,0826.5,5.04,0.00,22.1,20.8,00.0,31.0,23.7,06.2,0000.0,0008.07,0004.30,0003.91
2023-02-16 13:34:00,,0826.5,5.04,0.00,22.2,21.8,00.0,31.0,24.0,06.2,0000.0,0008.48,0004.35,0003.92
2023-02-16 13:35:00,,0826.6,4.94,0.00,22.3,22.7,00.0,31.0,24.2,06.1,0000.0,0008.55,0004.35,0003.93
2023-02-16 13:36:00,,0826.6,5.01,0.00,22.5,23.2,00.0,31.0,24.4,06.1,0000.0,0008.41,0004.32,0003.93
2023-02-16 13:37:00,,0826.6,4.91,0.00,22.5,22.7,00.0,31.1,24.3,06.1,0000.0,0007.61,0004.36,0003.95
2023-02-16 13:38:00,,0826.5,5.02,0.00,22.4,21.9,00.0,31.1,24.1,06.1,0000.0,0007.53,0004.40,0003.98
2023-02-16 13:39:00,,0826.6,4.98,0.00,22.4,21.3,00.0,31.1,24.0,06.1,0000.0,0007.58,0004.44,0004.01
2023-02-16 13:40:00,,0826.5,5.00,0.00,22.3,20.8,00.0,31.1,23.8,06.2,0000.0,0007.53,0004.43,0004.04
2023-02-16 13:41:00,,0826.5,5.01,0.00,22.2,20.4,00.0,31.1,23.7,06.2,0000.0,0007.63,0004.46,0004.07
2023-02-16 13:42:00,,0826.5,5.00,0.00,22.1,20.3,00.0,31.1,23.6,06.2,0000.0,0007.63,0004.48,0004.10
2023-02-16 13:43:00,,0826.6,4.98,0.00,22.2,21.2,00.0,31.0,23.9,06.2,0000.0,0007.60,0004.51,0004.15
2023-02-16 13:44:00,,0826.7,4.97,0.00,22.3,22.1,00.0,31.0,24.1,06.2,0000.0,0007.62,0004.55,0004.19
2023-02-16 13:45:00,,0826.7,5.01,0.00,22.4,22.9,00.0,31.0,24.4,06.1,0000.0,0007.25,0004.53,0004.22
2023-02-16 13:46:00,,0826.7,4.98,0.00,22.5,23.4,00.0,31.1,24.5,06.1,0000.0,0007.21,0004.55,0004.24
2023-02-16 13:47:00,,0826.6,5.07,0.00,22.6,22.9,00.0,31.1,24.4,06.1,0000.0,0007.72,0004.60,0004.27
2023-02-16 13:48:00,,0826.6,5.01,0.00,22.5,22.1,00.0,31.2,24.2,06.1,0000.0,0007.75,0004.55,0004.28
2023-02-16 13:49:00,,0826.6,4.98,0.00,22.4,21.4,00.0,31.2,24.1,06.1,0000.0,0007.68,0004.54,0004.27
2023-02-16 13:50:00,,0826.6,4.99,0.00,22.3,20.8,00.0,31.2,23.9,06.1,0000.0,0007.68,0004.54,0004.27
2023-02-16 13:51:00,,0826.6,4.99,0.00,22.3,20.4,00.0,31.2,23.7,06.2,0000.0,0007.66,0004.55,0004.29
2023-02-16 13:52:00,,0826.7,5.03,0.00,22.2,20.6,00.0,31.1,23.7,06.2,0000.0,0008.06,0004.52,0004.29
2023-02-16 13:53:00,,0826.7,4.99,0.00,22.3,21.7,00.0,31.1,24.0,06.2,0000.0,0008.13,0004.51,0004.29
2023-02-16 13:54:00,,0826.7,5.02,0.00,22.4,22.6,00.0,31.1,24.2,06.2,0000.0,0008.39,0004.52,0004.28
2023-02-16 13:55:00,,0826.7,5.03,0.00,22.5,23.1,00.0,31.1,24.4,06.2,0000.0,0008.28,0004.48,0004.27
2023-02-16 13:56:00,,0826.7,5.02,0.00,22.6,22.6,00.0,31.2,24.4,06.1,0000.0,0008.18,0004.48,0004.26
2023-02-16 13:57:00,,0826.7,5.01,0.00,22.5,21.9,00.0,31.2,24.2,06.1,0000.0,0008.12,0004.46,0004.26
2023-02-16 13:58:00,,0826.7,4.97,0.00,22.4,21.2,00.0,31.2,24.0,06.2,0000.0,0007.77,0004.42,0004.24
2023-02-16 13:59:00,,0826.7,4.99,0.00,22.4,20.7,00.0,31.2,23.9,06.2,0000.0,0007.54,0004.43,0004.24
